Regional Weather Roundup
Issued by NWS Mt. Holly, NJ

Home | Current Version | Previous Version | Text Only | Print | Product List | Glossary On
Versions: 1 2 3 4 5 6 7 8 9 10 11 12 13 14 15 16 17 18 19 20 21 22 23 24 25 26 27 28 29 30 31 32 33 34 35 36 37 38 39 40 41 42 43 44 45 46 47 48 49 50
000
ASUS41 KPHI 260513
RWRPHI

REGIONAL WEATHER ROUNDUP
NATIONAL WEATHER SERVICE MOUNT HOLLY NJ
100 AM EDT THU APR 26 2018

NOTE:  "FAIR" INDICATES FEW OR NO CLOUDS BELOW 12,000 FEET WITH NO
SIGNIFICANT WEATHER AND/OR OBSTRUCTIONS TO VISIBILITY.

 * = STATION DOES NOT REPORT PRECIPITATION (E.G. RAIN, SNOW, ETC.)
        OR FOG.

NJZ015>026-260600-
SOUTHERN NEW JERSEY

CITY           SKY/WX    TMP DP  RH WIND       PRES   REMARKS
POMONA         CLOUDY    57  57 100 NW5       29.64F
WILDWOOD*      LGT RAIN  58  57  97 W6        29.67R FOG
MILLVILLE      CLOUDY    61  57  87 W8        29.66R
WRIGHTSTOWN    CLOUDY    59  59 100 CALM      29.61F
MOUNT HOLLY    CLOUDY    60  59  96 W5        29.64S
TRENTON        MOCLDY    60  57  89 W3        29.63F

$$
NJZ001>014-260600-
NORTHERN NEW JERSEY

CITY           SKY/WX    TMP DP  RH WIND       PRES   REMARKS
SUSSEX         FOG       56  56 100 CALM      29.63F VSB 1
ANDOVER*         N/A     56  56 100 CALM      29.64S
MORRISTOWN     FOG       57  57 100 CALM      29.63F VSB 3/4
NEWARK         LGT RAIN  55  55 100 CALM      29.63F FOG
TETERBORO      FOG       56  56 100 CALM      29.62F VSB 1
CALDWELL       CLOUDY    57  57 100 CALM      29.63F FOG
SOMERVILLE     FOG       57  57 100 CALM      29.60F VSB 3/4
ALLAIRE*       LGT RAIN  53  53 100 CALM      29.64F FOG
TOMS RIVER*    RAIN      55  55 100 W3        29.63F

$$
PAZ043-044-047-054-055-060>062-066>071-260600-
EASTERN PENNSYLVANIA

CITY           SKY/WX    TMP DP  RH WIND       PRES   REMARKS
PHILADELPHIA   MOCLDY    61  56  83 NW8       29.67R
NORTH PHILA    MOCLDY    61  57  87 W9        29.66S
BLUE BELL*     CLOUDY    55  55 100 W3        29.67S
DOYLESTOWN     CLOUDY    58  55  90 W6        29.64S
QUAKERTOWN*    CLOUDY    57  55  94 VRB6      29.66S
PERKASIE*      CLOUDY    57  57 100 NW12      29.66S
POTTSTOWN      CLOUDY    57  55  93 W5        29.68S
LANCASTER      FAIR      56  52  86 W10       29.70S
COATESVILLE    MOCLDY    57  54  88 NW13      29.70S
READING        CLOUDY    58  55  90 W13       29.67F
ALLENTOWN      CLOUDY    59  54  83 W6        29.65S
MOUNT POCONO   CLOUDY    51  51 100 NW14      29.65F
HAZLETON       CLOUDY    52  52 100 W10G16    29.72S
LEHIGHTON      CLOUDY    55  54  94 CALM      29.67F
WILKES BARRE   CLOUDY    53  52  96 NW6       29.68F

$$
DEZALL-MDZ008-012-015-019-020-260600-
DELAWARE AND EASTERN MARYLAND

CITY           SKY/WX    TMP DP  RH WIND       PRES   REMARKS
WILMINGTON     MOCLDY    60  55  83 NW12      29.68R
DOVER          CLOUDY    60  57  89 W10       29.68R
GEORGETOWN     FAIR      61  59  93 W3        29.68S
ABERDEEN       FAIR      58  54  86 W6        29.70S
PATUXENT       FAIR      58  56  93 W7        29.72
OCEAN CITY     MOCLDY    60  60 100 NW9       29.67S
WALLOPS ISLAND FAIR      61  59  93 W10       29.70R
CAMBRIDGE      CLOUDY    59  57  94 W6        29.70F
SALISBURY      FAIR      60  59  96 NW8       29.68F

$$
PAZ001-021-NYZ056-072-MDZ011-DCZ001-260600-
OTHER NEARBY LOCATIONS

CITY           SKY/WX    TMP DP  RH WIND       PRES   REMARKS
HARRISBURG     FAIR      56  46  69 NW17      29.72R
STATE COLLEGE  FAIR      45  37  74 W12       29.79F
WILLIAMSPORT   FAIR      53  42  66 W12       29.73R
BINGHAMTON     CLOUDY    49  48  97 W8        29.67F
NEW YORK CITY  HVY RAIN  55  54  96 CALM      29.64  VSB 1/2
BALTIMORE      FAIR      55  53  93 W8        29.72S
WASHINGTON DC  FAIR      60  50  69 NW12      29.74F

$$



USA.gov is the U.S. government's official web portal to all federal, state and local government web resources and services.